Regional Weather Roundup
Issued by NWS Grand Forks, ND

Home | Current Version | Previous Version | Graphics & Text | Print | Product List | Glossary On
Versions: 1 2 3 4 5 6 7 8 9 10 11 12 13 14 15 16 17 18 19 20 21 22 23 24 25 26 27 28 29 30 31 32 33 34 35 36 37 38 39 40 41 42 43 44 45 46 47 48 49 50
582
ASUS43 KFGF 080710
RWRFGF
PRAIRIE TO PINES  WEATHER ROUNDUP
NATIONAL WEATHER SERVICE EASTERN NORTH DAKOTA/GRAND FORKS ND
100 AM CST MON FEB 08 2016

 **SATELLITE DATA USED TO AUGMENT SKY COVER AT AUTOMATED STATIONS**
 *****  WEATHER ACROSS EASTERN NORTH DAKOTA  *****

CITY           SKY/WX    TMP DP  RH WIND       PRES   REMARKS
GRAND FORKS    LGT SNOW  15  10  80 N35G44    30.05S BLWGSNOWWCI  -7
GRAND FRKS AFB LGT SNOW  14   9  79 N25G40    30.07R WCI  -5
GRAND FRKS NWS   N/A     14 N/A N/A N39         N/A  WCI  -9
DEVILS LAKE    FLURRIES  18  14  84 N18       30.10R WCI   2
FARGO          LGT SNOW  14  10  84 N28G38    30.04R VSB 3/4 WCI  -6
WAHPETON ARPT  CLOUDY    14  10  85 N20G35    30.02R WCI  -3
$$

 ***** WEATHER ACROSS CENTRAL AND WESTERN NORTH DAKOTA  *****

CITY           SKY/WX    TMP DP  RH WIND       PRES   REMARKS
BISMARCK       PTCLDY    29  17  61 NW25G38   30.19R WCI  14
MINOT          FLURRIES  28  17  63 NW26G35   30.18S WCI  13
JAMESTOWN      CLOUDY    20  14  77 N26G37    30.06R WCI   2
MINOT AFB      CLEAR     26  20  79 NW23G32   30.18R WCI  11
GARRISON         N/A     24  18  77 NW23      30.19S WCI   9
WILLISTON      CLEAR     26  18  71 NW23      30.31R WCI  11
DICKINSON      CLEAR     21  14  74 NW12      30.26R WCI   9
HETTINGER      CLEAR     24  15  68 NW18G26   30.27R WCI  10
$$

 *****  OTHER AIRPORT OBSERVATIONS IN OUR AREA  *****

CITY           SKY/WX    TMP DP  RH WIND       PRES   REMARKS
WALHALLA       LGT SNOW  14  14 100 N18G24    30.12R WCI  -3
GRAFTON AIRPOR LGT SNOW  14  12  92 N37G45    30.08S VSB 3/4 WCI  -9
VALLEY CITY AR FLURRIES  18  14  86 N24G32    30.07R WCI   0
CANDO          NOT AVBL
CAVALIER APRT  CLOUDY    14   9  79 N32G43    30.09R HAZE    WCI  -7
GWINNER        CLOUDY    23  14  68 N30G41    30.04S WCI   5
SHEYENNE NWR     N/A     17  11  76 N16       29.95S WCI   2
ROLLA          FLURRIES  18  14  86 N24G31    30.10R WCI   0
 ***** THE ABOVE OBSERVATIONS ARE NON NWS ARE NOT QUALITY
       CONTROLLED AND MAY MIS-REPORT RAIN FOR SNOW...
$$

  *****  WEATHER ACROSS NORTHERN MINNESOTA  *****

CITY           SKY/WX    TMP DP  RH WIND       PRES   REMARKS
FLAG ISLAND    LGT SNOW   3   0  85 NW23      29.92S WCI -19
WARROAD        LGT SNOW   5   0  78 NW17      29.94S WCI -14
ROSEAU         CLOUDY     7   0  72 NW20      29.97R HAZE    WCI -13
HALLOCK        LGT SNOW  10   7  85 N21G30    30.05S WCI  -9
THF RVR FALLS  NOT AVBL
BAUDETTE       FLURRIES   4  -2  76 NW17G26   29.89R WCI -16
WASKISH        FLURRIES   5   1  85 NW12      29.89S WCI -11
CROOKSTON      LGT SNOW  10   9  92 N28G35    30.03F VSB 3/4 WCI -11
STEPHEN NDAWN    N/A     10   7  85 N23         N/A  WCI -10
GREENBUSH NDAW   N/A      7   3  85 NW21        N/A  WCI -13
$$
  *****  WEATHER ACROSS CENTRAL AND WEST MINNESOTA  *****

CITY           SKY/WX    TMP DP  RH WIND       PRES   REMARKS
FOSSTON        LGT SNOW   3   0  85 N22G32    29.95S VSB 1   WCI -19
BEMIDJI        CLOUDY     4  -1  78 NW17G24   29.88R WCI -15
PARK RAPIDS    FLURRIES   7   0  73 NW18G30   29.86R WCI -12
ELBOW LAKE     LGT SNOW  10   6  85 NW26G39   29.95R WCI -11
WADENA         LGT SNOW   7   1  78 NW25G32   29.87R WCI -15
DETROIT LAKES  LGT SNOW  10   7  85 N26G36    29.93S WCI -11
MOORHEAD       CLOUDY    12  10  92 N33G40    30.03R WCI -10
FERGUS FALLS   LGT SNOW  10   7  85 N32G43    29.98F VSB 1   WCI -12
MORRIS MN      HVY SNOW  12   9  85 N36G43    29.93R VSB<1/4 WCI -11
STAPLES        LGT SNOW   9   3  78 NW15G22   29.85R WCI  -8
$$
  *****  WEATHER ELSEWHERE ACROSS MINNESOTA  *****

CITY           SKY/WX    TMP DP  RH WIND       PRES   REMARKS
DULUTH         LGT SNOW  14   9  80 NW17G28   29.66R BLWGSNOWWCI  -3
INTRNTL FALLS  LGT SNOW   8   2  76 NW14      29.82S WCI  -8
ELY            FLURRIES  14  10  85 N6        29.69R WCI   5
CLOQUET        LGT SNOW  12   9  85 NW18G25   29.70R WCI  -5
WHEATON        LGT SNOW  18  12  79 NW25G33   30.02S WCI  -1
BRAINERD       CLOUDY    10   4  76 NW16      29.82R WCI  -7
HIBBING        LGT SNOW   8   4  83 NW18G30   29.73R FOG     WCI -11
ALEXANDRIA     LGT SNOW   9   3  77 NW17G25   29.88S WCI  -9
SAINT CLOUD    CLOUDY    13   5  70 NW17G28   29.81R WCI  -4
MINNEAPOLIS    FLURRIES  15   9  76 NW16      29.78S WCI  -1
$$

  *****  WEATHER ACROSS SOUTH DAKOTA  *****

CITY           SKY/WX    TMP DP  RH WIND       PRES   REMARKS
SIOUX FALLS    CLOUDY    23  16  74 NW25G32   29.97S WCI   7
BROOKINGS      FLURRIES  19  14  81 N33G41    29.93F WCI  -1
WATERTOWN      LGT SNOW  19  13  77 N25G36    29.96S WCI   1
HURON          CLOUDY    28  20  71 N23G35    30.05S WCI  14
SISSETON         N/A     17  13  84 N28G38    30.01R WCI  -2
ABERDEEN       CLOUDY    27  17  66 N24G32    30.07R WCI  12
MITCHELL       PTCLDY    28  20  71 NW24G33   30.06S WCI  14
PIERRE         CLEAR     30  17  58 NW21      30.17R WCI  17
MOBRIDGE       CLEAR     29  17  61 NW23G30   30.14R WCI  15
RAPID CITY     CLEAR     30  10  43 NW26G37   30.29R WCI  16
$$

  *****  SOME WEATHER IN NEARBY STATES *****

CITY           SKY/WX    TMP DP  RH WIND       PRES   REMARKS
GLASGOW MT     CLEAR     23  16  74 W8        30.40F WCI  14
GREAT FALLS MT CLOUDY    32  19  58 SW12      30.42S WCI  23
CHEYENNE WY    CLOUDY    19  10  68 N15       30.33F WCI   5
SCOTTSBLUFF NE CLOUDY    26  13  57 W17       30.38R WCI  13
OMAHA NE       CLOUDY    31  22  69 NW25G32   29.98F WCI  17
DES MOINES IA  FLURRIES  26  19  74 NW20G35   29.87R WCI  12
DAVENPORT IA   FLURRIES  33  30  88 W21       29.70F WCI  21
CHICAGO IL     CLEAR     31  26  82 W7        29.65F WCI  24
EAU CLAIRE WI  LGT SNOW  20  14  77 W8        29.67S WCI  10
LA CROSSE WI   LGT SNOW  24  20  84 NW14      29.69R FOG     WCI  12
$$

  *****  SOME NATIONAL WEATHER *****

CITY           SKY/WX    TMP DP  RH WIND       PRES   REMARKS
LA GUARDIA NY  CLOUDY    39  23  52 NE17G24   29.82F
RALEIGH NC     PTCLDY    37  21  52 CALM      29.80F
ATLANTA GA     PTCLDY    42  21  43 W6        29.95F
NEW ORLEANS LA CLEAR     44  32  62 W5        30.15F
OKLAHOMA CITY  CLOUDY    43  16  33 NW18      30.29R
ALBUQUERQUE NM CLOUDY    35  18  49 CALM      30.41R
SALT LAKE CITY PTCLDY    28  25  88 S5        30.67R WCI  23
LOS ANGELES CA CLEAR     66  30  26 CALM      30.13R
BOISE ID       CLEAR     33  30  88 SE8       30.67R
SEATTLE WA     CLEAR     42  38  85 N8        30.50S
$$

*** WEATHER ACROSS MANITOBA...SASKATCHEWAN AND ONTARIO ***
                ***ONTARIO***

CITY           SKY/WX    TMP DP  RH WIND       PRES   REMARKS
GERALDTON      FLURRIES   0  -8  71 NE12G18   29.74S WCI -18
THUNDER BAY    LGT SNOW   9   3  78 N9        29.70R WCI  -5
SIOUX LOOKOUT  NOT AVBL
TORONTO        CLOUDY    37  32  81 E8        29.75F
BIG TROUT LK   CLEAR    -15 -20  76 E5        30.06F WCI -27
PICKLE LAKE    NOT AVBL
DRYDEN         FLURRIES   7   3  85 N9        29.80R WCI  -7
KENORA         NOT AVBL
$$
                *** MANITOBA***

CITY           SKY/WX    TMP DP  RH WIND       PRES   REMARKS
BRANDON        FLURRIES  19  12  73 N13G20    30.14R WCI   7
DAUPHIN        CLOUDY    16  12  86 N12G17    30.19R WCI   3
ISLAND LAKE    LGT SNOW  -4  -9  77 NW8       30.06S WCI -19
PILOT MOUND      N/A     14  10  85 N17G23      N/A  WCI  -3
THE PAS        FLURRIES  10   5  79 N7        30.22F WCI   0
THOMPSON       FLURRIES   0  -6  78 NW5       30.16R WCI -10
WINNIPEG       LGT SNOW   9   3  78 N20       30.10R BLWGSNOWWCI -11
LYNN LAKE      FLURRIES   0  -6  78 NW10      30.20R WCI -17
CHURCHILL      FLURRIES  -8 -13  77 W5        30.18S WCI -19
GILLAM         LGT SNOW  -6 -11  77 N5        30.13S WCI -17
$$
                ***SASKATCHEWAN***

CITY           SKY/WX    TMP DP  RH WIND       PRES   REMARKS
ESTEVAN        NOT AVBL
KINDERSLEY     MOCLDY    19  14  79 W9        30.36R WCI   9
LLOYDMINSTER   CLOUDY    23  16  74 W12       30.33R WCI  12
PRINCE ALBERT  CLEAR     10   9  92 W2        30.30R
REGINA         CLEAR     18  16  93 NW8       30.28F WCI   7
YORKTON        CLEAR     16  10  79 NW9       30.21S WCI   4
N. BATTLEFORD  CLEAR     19  14  79 W6        30.36R WCI  11
LA RONGE       CLEAR      3   1  92 W7        30.32R WCI  -9
SASKATOON      CLEAR     12   9  85 W9        30.34R WCI   0
SWIFT CURRENT  CLEAR     19  16  86 W12       30.33F WCI   7
$$
NOTE: THESE ARE AUTOMATED STATIONS WITH LIMITED QUALITY CONTROL
      "FAIR" INDICATES FEW OR NO CLOUDS BELOW 12,000 FEET WITH NO
      SIGNIFICANT WEATHER AND/OR OBSTRUCTIONS TO VISIBILITY.
      SKY/WX - SKY CONDITION AND SIGNIFICANT WEATHER.
      TMP - AIR TEMPERATURE.    DP   - DEWPOINT TEMPERATURE.
      RH  - RELATIVE HUMIDITY.  PRES - PRESSURE.
      HX  - HEAT INDEX.         WCI  - WIND CHILL INDEX.
$




USA.gov is the U.S. government's official web portal to all federal, state and local government web resources and services.